• In Belarus
  • List of Countries
  • For 7 days
  • Water Temperature
  • Weather Map
  • Weather Widgets
  • user-avatar
    Login

    Hourly Weather el Vendrell

    Today, 19 January, Sunday

    Time Temperature Precipitation Wind Pressure Humidity
    00:00 +10°C° 0 mm 3 mps 758 mmHg 83%
    01:00 +10°C° 0.1 mm 4 mps 758 mmHg 82%
    02:00 +9°C° 0.1 mm 5 mps 758 mmHg 80%
    03:00 +9°C° 0.1 mm 6 mps 758 mmHg 79%
    04:00 +9°C° 1.2 mm 7 mps 757 mmHg 82%
    05:00 +8°C° 1.2 mm 7 mps 757 mmHg 85%
    06:00 +8°C° 0 mm 7 mps 757 mmHg 87%
    07:00 +8°C° 2.8 mm 7 mps 758 mmHg 84%
    08:00 +8°C° 2.8 mm 7 mps 758 mmHg 80%
    09:00 +8°C° 2.8 mm 7 mps 758 mmHg 76%
    10:00 +9°C° 0.2 mm 8 mps 758 mmHg 66%
    11:00 +10°C° 0.2 mm 8 mps 759 mmHg 56%
    12:00 +10°C° 0.2 mm 9 mps 759 mmHg 46%
    13:00 +11°C° 0 mm 9 mps 759 mmHg 43%
    14:00 +11°C° 0 mm 9 mps 759 mmHg 41%
    15:00 +11°C° 0 mm 9 mps 759 mmHg 38%
    16:00 +10°C° 0 mm 9 mps 760 mmHg 38%
    17:00 +8°C° 0 mm 9 mps 760 mmHg 37%
    18:00 +7°C° 0 mm 10 mps 760 mmHg 36%
    19:00 +7°C° 0 mm 10 mps 761 mmHg 38%
    20:00 +6°C° 0 mm 10 mps 761 mmHg 39%
    21:00 +6°C° 0 mm 10 mps 762 mmHg 40%
    22:00 +5°C° 0 mm 9 mps 762 mmHg 41%
    23:00 +5°C° 0 mm 9 mps 762 mmHg 43%

    Tomorrow, 20 January, Monday

    Time Temperature Precipitation Wind Pressure Humidity
    00:00 +5°C° 0 mm 9 mps 763 mmHg 44%
    01:00 +5°C° 0 mm 9 mps 762 mmHg 45%
    02:00 +5°C° 0 mm 9 mps 762 mmHg 45%
    03:00 +5°C° 0 mm 10 mps 762 mmHg 46%
    04:00 +6°C° 0 mm 10 mps 762 mmHg 48%
    05:00 +6°C° 0 mm 11 mps 762 mmHg 50%
    06:00 +5°C° 0 mm 12 mps 762 mmHg 52%
    07:00 +5°C° 0.1 mm 13 mps 762 mmHg 54%
    08:00 +5°C° 0.1 mm 13 mps 762 mmHg 57%
    09:00 +5°C° 0.1 mm 14 mps 762 mmHg 59%
    10:00 +6°C° 0.2 mm 14 mps 762 mmHg 58%
    11:00 +6°C° 0.2 mm 15 mps 762 mmHg 58%
    12:00 +6°C° 0.2 mm 15 mps 762 mmHg 57%
    13:00 +6°C° 0.3 mm 16 mps 762 mmHg 61%
    14:00 +5°C° 0.3 mm 16 mps 761 mmHg 65%
    15:00 +5°C° 0.3 mm 16 mps 761 mmHg 69%
    16:00 +5°C° 0.6 mm 16 mps 761 mmHg 70%
    17:00 +5°C° 0.6 mm 16 mps 761 mmHg 72%
    18:00 +4°C° 0.6 mm 16 mps 762 mmHg 73%
    19:00 +5°C° 0.6 mm 16 mps 762 mmHg 74%
    20:00 +5°C° 0.6 mm 15 mps 762 mmHg 75%
    21:00 +5°C° 0.6 mm 15 mps 762 mmHg 75%
    22:00 +5°C° 3.3 mm 15 mps 762 mmHg 79%
    23:00 +5°C° 3.3 mm 15 mps 762 mmHg 82%

    Day after tomorrow, 21 January, Tuesday

    Time Temperature Precipitation Wind Pressure Humidity
    00:00 +5°C° 3.3 mm 15 mps 761 mmHg 85%
    01:00 +5°C° 2.3 mm 13 mps 761 mmHg 85%
    02:00 +5°C° 2.3 mm 12 mps 761 mmHg 86%
    03:00 +6°C° 2.3 mm 11 mps 761 mmHg 86%
    04:00 +7°C° 2.9 mm 11 mps 761 mmHg 87%
    05:00 +8°C° 2.9 mm 12 mps 760 mmHg 89%
    06:00 +9°C° 2.9 mm 13 mps 760 mmHg 90%
    07:00 +9°C° 1.5 mm 13 mps 760 mmHg 89%
    08:00 +10°C° 1.5 mm 14 mps 760 mmHg 88%
    09:00 +10°C° 1.5 mm 15 mps 760 mmHg 88%
    10:00 +10°C° 1.8 mm 15 mps 760 mmHg 89%
    11:00 +10°C° 1.8 mm 15 mps 760 mmHg 90%
    12:00 +10°C° 1.8 mm 15 mps 759 mmHg 91%
    13:00 +10°C° 1.7 mm 15 mps 759 mmHg 89%
    14:00 +10°C° 1.7 mm 15 mps 759 mmHg 88%
    15:00 +10°C° 1.7 mm 16 mps 759 mmHg 86%
    16:00 +10°C° 1.8 mm 15 mps 759 mmHg 87%
    17:00 +10°C° 1.8 mm 15 mps 758 mmHg 87%
    18:00 +10°C° 1.8 mm 15 mps 758 mmHg 88%
    19:00 +10°C° 3.9 mm 14 mps 758 mmHg 89%
    20:00 +10°C° 3.9 mm 14 mps 758 mmHg 89%
    21:00 +10°C° 3.9 mm 13 mps 758 mmHg 90%
    22:00 +10°C° 5.2 mm 13 mps 758 mmHg 91%
    23:00 +10°C° 5.2 mm 13 mps 757 mmHg 91%

    22 January, Wednesday

    Time Temperature Precipitation Wind Pressure Humidity
    00:00 +10°C° 5.2 mm 13 mps 757 mmHg 92%
    01:00 +12°C° 2.3 mm 11 mps 757 mmHg 88%
    02:00 +12°C° 2.3 mm 10 mps 757 mmHg 85%
    03:00 +12°C° 2.3 mm 8 mps 757 mmHg 82%
    04:00 +11°C° 0.3 mm 7 mps 757 mmHg 81%
    05:00 +11°C° 0.3 mm 6 mps 757 mmHg 79%
    06:00 +12°C° 0.3 mm 5 mps 757 mmHg 78%
    07:00 +11°C° 0.6 mm 6 mps 758 mmHg 79%
    08:00 +11°C° 0.6 mm 6 mps 758 mmHg 81%
    09:00 +12°C° 0.6 mm 7 mps 758 mmHg 82%
    10:00 +11°C° 1.9 mm 6 mps 757 mmHg 86%
    11:00 +12°C° 1.9 mm 5 mps 757 mmHg 89%
    12:00 +12°C° 1.9 mm 4 mps 756 mmHg 93%
    13:00 +12°C° 1.6 mm 4 mps 756 mmHg 92%
    14:00 +12°C° 1.6 mm 5 mps 756 mmHg 91%
    15:00 +12°C° 1.6 mm 5 mps 756 mmHg 90%
    16:00 +12°C° 1.9 mm 5 mps 756 mmHg 87%
    17:00 +12°C° 1.9 mm 5 mps 756 mmHg 85%
    18:00 +12°C° 1.9 mm 5 mps 756 mmHg 83%
    19:00 +12°C° 0.4 mm 4 mps 757 mmHg 84%
    20:00 +11°C° 0.4 mm 3 mps 757 mmHg 85%
    21:00 +11°C° 0.4 mm 3 mps 757 mmHg 86%
    22:00 +12°C° 0.2 mm 2 mps 758 mmHg 86%
    23:00 +10°C° 0.2 mm 2 mps 758 mmHg 87%

    23 January, Thursday

    Time Temperature Precipitation Wind Pressure Humidity
    00:00 +10°C° 0.2 mm 2 mps 758 mmHg 87%
    01:00 +10°C° 0.1 mm 3 mps 758 mmHg 87%
    02:00 +10°C° 0.1 mm 4 mps 758 mmHg 87%
    03:00 +10°C° 0.1 mm 4 mps 758 mmHg 87%
    04:00 +8°C° 0.1 mm 4 mps 759 mmHg 87%
    05:00 +8°C° 0.1 mm 5 mps 759 mmHg 86%
    06:00 +8°C° 0.1 mm 5 mps 759 mmHg 86%
    07:00 +9°C° 0.1 mm 5 mps 759 mmHg 86%
    08:00 +10°C° 0.1 mm 4 mps 760 mmHg 86%
    09:00 +11°C° 0.1 mm 4 mps 760 mmHg 86%
    10:00 +12°C° 0.1 mm 4 mps 760 mmHg 82%
    11:00 +13°C° 0.1 mm 5 mps 760 mmHg 78%
    12:00 +13°C° 0.1 mm 5 mps 760 mmHg 74%
    13:00 +14°C° 0.1 mm 5 mps 760 mmHg 72%
    14:00 +14°C° 0.1 mm 4 mps 760 mmHg 70%
    15:00 +14°C° 0.1 mm 4 mps 759 mmHg 68%
    16:00 +13°C° 0.1 mm 4 mps 760 mmHg 72%
    17:00 +12°C° 0.1 mm 3 mps 760 mmHg 75%
    18:00 +12°C° 0.1 mm 2 mps 760 mmHg 79%
    19:00 +12°C° 0 mm 2 mps 760 mmHg 78%
    20:00 +12°C° 0 mm 2 mps 761 mmHg 76%
    21:00 +12°C° 0 mm 2 mps 761 mmHg 75%
    22:00 +12°C° 0 mm 2 mps 761 mmHg 74%
    23:00 +10°C° 0 mm 2 mps 761 mmHg 74%

    24 January, Friday

    Time Temperature Precipitation Wind Pressure Humidity
    00:00 +10°C° 0 mm 2 mps 761 mmHg 74%
    01:00 +10°C° 0 mm 2 mps 760 mmHg 73%
    02:00 +10°C° 0 mm 2 mps 760 mmHg 72%
    03:00 +9°C° 0 mm 2 mps 760 mmHg 71%
    04:00 +9°C° 0 mm 2 mps 760 mmHg 71%
    05:00 +9°C° 0 mm 2 mps 760 mmHg 71%
    06:00 +9°C° 0 mm 2 mps 760 mmHg 71%
    07:00 +9°C° 0 mm 2 mps 760 mmHg 69%
    08:00 +10°C° 0 mm 2 mps 760 mmHg 67%
    09:00 +12°C° 0 mm 2 mps 761 mmHg 65%
    10:00 +13°C° 0 mm 1 mps 761 mmHg 61%
    11:00 +14°C° 0 mm 1 mps 761 mmHg 57%
    12:00 +15°C° 0 mm 1 mps 761 mmHg 53%
    13:00 +15°C° 0 mm 1 mps 761 mmHg 54%
    14:00 +15°C° 0 mm 1 mps 760 mmHg 54%
    15:00 +15°C° 0 mm 1 mps 760 mmHg 55%
    16:00 +14°C° 0 mm 1 mps 760 mmHg 60%
    17:00 +13°C° 0 mm 1 mps 761 mmHg 66%
    18:00 +12°C° 0 mm 1 mps 761 mmHg 71%
    19:00 +12°C° 0 mm 1 mps 761 mmHg 73%
    20:00 +11°C° 0 mm 1 mps 762 mmHg 74%
    21:00 +10°C° 0 mm 0 mps 762 mmHg 75%
    22:00 +11°C° 0 mm 1 mps 762 mmHg 77%
    23:00 +10°C° 0 mm 1 mps 762 mmHg 78%
    Show more